Year,Month,Day,Hour,Minute,Value (Times are PST for windgust in km/hr)
2017,05,14,01,31,4.80
2017,05,14,01,32,4.80
2017,05,14,01,33,6.40
2017,05,14,01,34,6.40
2017,05,14,01,35,3.20
2017,05,14,01,36,3.20
2017,05,14,01,37,6.40
2017,05,14,01,38,9.60
2017,05,14,01,39,6.40
2017,05,14,01,40,6.40
2017,05,14,01,41,6.40
2017,05,14,01,42,4.80
2017,05,14,01,43,6.40
2017,05,14,01,44,9.60
2017,05,14,01,45,4.80
2017,05,14,01,46,4.80
2017,05,14,01,47,4.80
2017,05,14,01,48,6.40
2017,05,14,01,49,3.20
2017,05,14,01,50,3.20
2017,05,14,01,51,9.60
2017,05,14,01,52,4.80
2017,05,14,01,53,3.20
2017,05,14,01,54,4.80
2017,05,14,01,55,1.60
2017,05,14,01,56,3.20
2017,05,14,01,57,3.20
2017,05,14,01,58,1.60
2017,05,14,01,59,3.20
2017,05,14,02,00,4.80
2017,05,14,02,01,3.20
2017,05,14,02,02,1.60
2017,05,14,02,09,1.60
2017,05,14,02,10,3.20
2017,05,14,02,11,1.60
2017,05,14,03,16,3.20
2017,05,14,03,17,3.20
2017,05,14,03,18,3.20
2017,05,14,03,19,9.60
2017,05,14,03,20,9.60
2017,05,14,03,21,11.30
2017,05,14,03,22,6.40
2017,05,14,03,23,4.80
2017,05,14,03,24,9.60
2017,05,14,03,25,6.40
2017,05,14,03,26,6.40
2017,05,14,03,27,4.80
2017,05,14,03,28,4.80
2017,05,14,03,29,6.40
2017,05,14,03,30,6.40
2017,05,14,03,31,3.20
2017,05,14,03,32,4.80
2017,05,14,03,33,4.80
2017,05,14,03,34,3.20
2017,05,14,03,35,3.20
2017,05,14,03,36,3.20
2017,05,14,03,37,3.20
2017,05,14,03,38,6.40
2017,05,14,03,39,4.80
2017,05,14,03,40,4.80
2017,05,14,03,41,4.80
2017,05,14,03,42,3.20
2017,05,14,03,43,4.80
2017,05,14,03,44,4.80
2017,05,14,03,45,4.80
2017,05,14,03,46,1.60
2017,05,14,03,47,1.60
2017,05,14,03,48,3.20
2017,05,14,03,49,1.60
2017,05,14,03,50,1.60
2017,05,14,03,51,4.80
2017,05,14,03,52,4.80
2017,05,14,03,53,3.20
2017,05,14,03,55,3.20
2017,05,14,03,56,3.20
2017,05,14,03,57,3.20
2017,05,14,04,02,3.20
2017,05,14,04,03,4.80
2017,05,14,04,04,3.20
2017,05,14,04,05,1.60
2017,05,14,04,07,1.60
2017,05,14,04,10,4.80
2017,05,14,04,11,4.80
2017,05,14,04,12,4.80
2017,05,14,04,13,4.80
2017,05,14,04,23,4.80
2017,05,14,04,24,3.20
2017,05,14,04,25,3.20
2017,05,14,04,26,3.20
2017,05,14,04,27,4.80
2017,05,14,04,28,4.80
2017,05,14,04,29,4.80
2017,05,14,04,30,4.80
2017,05,14,04,40,3.20
2017,05,14,04,41,3.20
2017,05,14,04,42,4.80
2017,05,14,04,44,3.20
2017,05,14,04,45,3.20
2017,05,14,04,46,1.60
2017,05,14,04,48,3.20
2017,05,14,04,49,1.60
2017,05,14,04,50,1.60
2017,05,14,06,44,6.40
2017,05,14,06,45,6.40
2017,05,14,06,46,4.80
2017,05,14,06,47,4.80
2017,05,14,06,48,4.80
2017,05,14,06,49,3.20
2017,05,14,06,50,3.20
2017,05,14,06,51,4.80
2017,05,14,06,52,3.20
2017,05,14,06,53,4.80
2017,05,14,06,54,4.80
2017,05,14,06,55,6.40
2017,05,14,06,56,3.20
2017,05,14,06,57,4.80
2017,05,14,06,58,3.20
2017,05,14,06,59,3.20
2017,05,14,07,00,3.20
2017,05,14,07,01,1.60
2017,05,14,07,09,4.80
2017,05,14,07,10,3.20
2017,05,14,07,11,1.60
2017,05,14,07,12,4.80
2017,05,14,07,13,4.80
2017,05,14,07,14,1.60
2017,05,14,07,20,6.40
2017,05,14,07,21,4.80
2017,05,14,07,22,1.60
2017,05,14,07,23,3.20
2017,05,14,07,24,4.80
2017,05,14,07,25,4.80
2017,05,14,07,26,3.20
2017,05,14,07,27,4.80
2017,05,14,07,28,3.20
2017,05,14,07,29,3.20
2017,05,14,07,30,3.20
2017,05,14,07,31,4.80
2017,05,14,07,32,3.20
2017,05,14,07,33,4.80
2017,05,14,07,34,1.60
2017,05,14,07,35,1.60
2017,05,14,07,39,1.60
2017,05,14,07,41,3.20
2017,05,14,07,42,3.20
2017,05,14,07,43,3.20
2017,05,14,07,44,3.20
2017,05,14,07,45,1.60
2017,05,14,07,46,4.80
2017,05,14,07,47,1.60
2017,05,14,07,48,1.60
2017,05,14,07,56,3.20
2017,05,14,07,57,4.80
2017,05,14,07,58,6.40
2017,05,14,07,59,6.40
2017,05,14,08,00,4.80
2017,05,14,08,01,4.80
2017,05,14,08,02,4.80
2017,05,14,08,03,3.20
2017,05,14,08,04,1.60
2017,05,14,08,05,3.20
2017,05,14,08,06,4.80
2017,05,14,08,07,6.40
2017,05,14,08,08,8.10
2017,05,14,08,09,6.40
2017,05,14,08,10,1.60
2017,05,14,08,12,3.20
2017,05,14,08,13,4.80
2017,05,14,08,14,4.80
2017,05,14,08,15,6.40
2017,05,14,08,16,6.40
2017,05,14,08,17,6.40
2017,05,14,08,18,6.40
2017,05,14,08,19,6.40
2017,05,14,08,20,6.40
2017,05,14,08,21,9.60
2017,05,14,08,22,6.40
2017,05,14,08,23,6.40
2017,05,14,08,24,8.10
2017,05,14,08,25,9.60
2017,05,14,08,26,8.10
2017,05,14,08,27,6.40
2017,05,14,08,28,8.10
2017,05,14,08,29,4.80
2017,05,14,08,30,6.40
2017,05,14,08,31,4.80
2017,05,14,08,32,4.80
2017,05,14,08,33,4.80
2017,05,14,08,34,4.80
2017,05,14,08,35,4.80
2017,05,14,08,36,6.40
2017,05,14,08,37,6.40
2017,05,14,08,38,4.80
2017,05,14,08,39,4.80
2017,05,14,08,40,1.60
2017,05,14,08,41,8.10
2017,05,14,08,42,8.10
2017,05,14,08,43,8.10
2017,05,14,08,44,4.80
2017,05,14,08,45,6.40
2017,05,14,08,46,3.20
2017,05,14,08,47,1.60
2017,05,14,08,48,9.60
2017,05,14,08,49,6.40
2017,05,14,08,50,6.40
2017,05,14,08,51,6.40
2017,05,14,08,52,6.40
2017,05,14,08,53,3.20
2017,05,14,08,54,3.20
2017,05,14,08,55,3.20
2017,05,14,08,56,3.20
2017,05,14,08,57,6.40
2017,05,14,08,58,6.40
2017,05,14,08,59,3.20
2017,05,14,09,00,3.20
2017,05,14,09,01,3.20
2017,05,14,09,02,4.80
2017,05,14,09,03,8.10
2017,05,14,09,04,8.10
2017,05,14,09,05,6.40
2017,05,14,09,06,6.40
2017,05,14,09,07,4.80
2017,05,14,09,08,6.40
2017,05,14,09,09,8.10
2017,05,14,09,10,6.40
2017,05,14,09,11,6.40
2017,05,14,09,12,6.40
2017,05,14,09,13,6.40
2017,05,14,09,14,4.80
2017,05,14,09,15,8.10
2017,05,14,09,16,6.40
2017,05,14,09,17,8.10
2017,05,14,09,18,4.80
2017,05,14,09,19,4.80
2017,05,14,09,20,8.10
2017,05,14,09,21,6.40
2017,05,14,09,22,3.20
2017,05,14,09,23,6.40
2017,05,14,09,24,6.40
2017,05,14,09,25,4.80
2017,05,14,09,26,4.80
2017,05,14,09,32,4.80
2017,05,14,09,33,4.80
2017,05,14,09,34,6.40
2017,05,14,09,35,6.40
2017,05,14,09,36,4.80
2017,05,14,09,37,6.40
2017,05,14,09,38,6.40
2017,05,14,09,39,3.20
2017,05,14,09,42,6.40
2017,05,14,09,43,6.40
2017,05,14,09,44,8.10
2017,05,14,09,45,4.80
2017,05,14,09,46,3.20
2017,05,14,09,47,3.20
2017,05,14,09,48,4.80
2017,05,14,09,49,4.80
2017,05,14,09,50,4.80
2017,05,14,09,51,6.40
2017,05,14,09,52,4.80
2017,05,14,09,53,3.20
2017,05,14,09,54,4.80
2017,05,14,09,55,3.20
2017,05,14,09,56,3.20
2017,05,14,09,57,3.20
2017,05,14,09,58,1.60
2017,05,14,09,59,1.60
2017,05,14,10,00,1.60
2017,05,14,10,01,3.20
2017,05,14,10,02,1.60
2017,05,14,10,07,4.80
2017,05,14,10,08,4.80
2017,05,14,10,09,4.80
2017,05,14,10,10,4.80
2017,05,14,10,11,6.40
2017,05,14,10,12,4.80
2017,05,14,10,13,3.20
2017,05,14,10,14,3.20
2017,05,14,10,15,11.30
2017,05,14,10,16,9.60
2017,05,14,10,17,12.90
2017,05,14,10,18,6.40
2017,05,14,10,19,6.40
2017,05,14,10,20,6.40
2017,05,14,10,21,4.80
2017,05,14,10,22,6.40
2017,05,14,10,23,6.40
2017,05,14,10,24,6.40
2017,05,14,10,25,8.10
2017,05,14,10,26,9.60
2017,05,14,10,27,6.40
2017,05,14,10,28,8.10
2017,05,14,10,29,6.40
2017,05,14,10,30,8.10
2017,05,14,10,31,6.40
2017,05,14,10,32,4.80
2017,05,14,10,33,8.10
2017,05,14,10,34,6.40
2017,05,14,10,35,6.40
2017,05,14,10,36,6.40
2017,05,14,10,37,3.20
2017,05,14,10,38,11.30
2017,05,14,10,39,4.80
2017,05,14,10,40,8.10
2017,05,14,10,41,8.10
2017,05,14,10,42,8.10
2017,05,14,10,43,9.60
2017,05,14,10,44,9.60
2017,05,14,10,45,3.20
2017,05,14,10,46,8.10
2017,05,14,10,47,9.60
2017,05,14,10,48,9.60
2017,05,14,10,49,9.60
2017,05,14,10,50,6.40
2017,05,14,10,51,6.40
2017,05,14,10,52,3.20
2017,05,14,10,53,6.40
2017,05,14,10,54,6.40
2017,05,14,10,55,8.10
2017,05,14,10,56,8.10
2017,05,14,10,57,11.30
2017,05,14,10,58,6.40
2017,05,14,10,59,6.40
2017,05,14,11,00,8.10
2017,05,14,11,01,9.60
2017,05,14,11,02,6.40
2017,05,14,11,03,8.10
2017,05,14,11,04,6.40
2017,05,14,11,05,6.40
2017,05,14,11,06,3.20
2017,05,14,11,07,8.10
2017,05,14,11,08,4.80
2017,05,14,11,09,8.10
2017,05,14,11,10,9.60
2017,05,14,11,11,9.60
2017,05,14,11,12,11.30
2017,05,14,11,13,6.40
2017,05,14,11,14,9.60
2017,05,14,11,15,6.40
2017,05,14,11,16,6.40
2017,05,14,11,17,6.40
2017,05,14,11,18,6.40
2017,05,14,11,19,6.40
2017,05,14,11,20,8.10
2017,05,14,11,21,4.80
2017,05,14,11,22,6.40
2017,05,14,11,23,8.10
2017,05,14,11,24,9.60
2017,05,14,11,25,9.60
2017,05,14,11,26,6.40
2017,05,14,11,27,4.80
2017,05,14,11,28,4.80
2017,05,14,11,29,6.40
2017,05,14,11,30,8.10
2017,05,14,11,31,6.40
2017,05,14,11,32,6.40
2017,05,14,11,33,6.40
2017,05,14,11,34,4.80
2017,05,14,11,35,4.80
2017,05,14,11,36,6.40
2017,05,14,11,37,4.80
2017,05,14,11,38,1.60
2017,05,14,11,39,6.40
2017,05,14,11,40,3.20
2017,05,14,11,41,1.60
2017,05,14,11,42,3.20
2017,05,14,11,43,3.20
2017,05,14,11,44,1.60
2017,05,14,11,45,4.80
2017,05,14,11,46,1.60
2017,05,14,11,47,1.60
2017,05,14,11,48,3.20
2017,05,14,11,49,4.80
2017,05,14,11,50,3.20
2017,05,14,11,56,9.60
2017,05,14,11,57,9.60
2017,05,14,11,58,11.30
2017,05,14,11,59,11.30
2017,05,14,12,00,9.60
2017,05,14,12,01,11.30
2017,05,14,12,02,6.40
2017,05,14,12,03,11.30
2017,05,14,12,04,11.30
2017,05,14,12,05,9.60
2017,05,14,12,06,11.30
2017,05,14,12,07,11.30
2017,05,14,12,08,12.90
2017,05,14,12,09,12.90
2017,05,14,12,10,6.40
2017,05,14,12,11,11.30
2017,05,14,12,12,11.30
2017,05,14,12,13,11.30
2017,05,14,12,14,14.50
2017,05,14,12,15,12.90
2017,05,14,12,16,12.90
2017,05,14,12,17,14.50
2017,05,14,12,18,14.50
2017,05,14,12,19,12.90
2017,05,14,12,20,14.50
2017,05,14,12,21,11.30
2017,05,14,12,22,12.90
2017,05,14,12,23,14.50
2017,05,14,12,24,16.10
2017,05,14,12,25,16.10
2017,05,14,12,26,14.50
2017,05,14,12,27,14.50
2017,05,14,12,28,14.50
2017,05,14,12,29,14.50
2017,05,14,12,30,16.10
2017,05,14,12,31,14.50
2017,05,14,12,32,11.30
2017,05,14,12,33,16.10
2017,05,14,12,34,16.10
2017,05,14,12,35,12.90
2017,05,14,12,36,12.90
2017,05,14,12,37,14.50
2017,05,14,12,38,16.10
2017,05,14,12,39,16.10
2017,05,14,12,40,12.90
2017,05,14,12,41,14.50
2017,05,14,12,42,14.50
2017,05,14,12,43,16.10
2017,05,14,12,44,16.10
2017,05,14,12,45,16.10
2017,05,14,12,46,12.90
2017,05,14,12,47,11.30
2017,05,14,12,48,14.50
2017,05,14,12,49,9.60
2017,05,14,12,50,12.90
2017,05,14,12,51,16.10
2017,05,14,12,52,11.30
2017,05,14,12,53,14.50
2017,05,14,12,54,11.30
2017,05,14,12,55,14.50
2017,05,14,12,56,14.50
2017,05,14,12,57,12.90
2017,05,14,12,58,14.50
2017,05,14,12,59,16.10
2017,05,14,13,00,14.50
2017,05,14,13,01,12.90
2017,05,14,13,02,11.30
2017,05,14,13,03,14.50
2017,05,14,13,04,14.50
2017,05,14,13,05,11.30
2017,05,14,13,06,12.90
2017,05,14,13,07,11.30
2017,05,14,13,08,12.90
2017,05,14,13,09,14.50
2017,05,14,13,10,17.70
2017,05,14,13,11,16.10
2017,05,14,13,12,11.30
2017,05,14,13,13,14.50
2017,05,14,13,14,19.30
2017,05,14,13,15,19.30
2017,05,14,13,16,17.70
2017,05,14,13,17,16.10
2017,05,14,13,18,19.30
2017,05,14,13,19,17.70
2017,05,14,13,20,16.10
2017,05,14,13,21,17.70
2017,05,14,13,22,16.10
2017,05,14,13,23,16.10
2017,05,14,13,24,16.10
2017,05,14,13,25,16.10
2017,05,14,13,26,16.10
2017,05,14,13,27,17.70
2017,05,14,13,28,17.70
2017,05,14,13,29,20.90
2017,05,14,13,30,19.30
2017,05,14,13,31,19.30
2017,05,14,13,32,19.30
2017,05,14,13,33,16.10
2017,05,14,13,34,16.10
2017,05,14,13,35,17.70
2017,05,14,13,36,14.50
2017,05,14,13,37,20.90
2017,05,14,13,38,14.50
2017,05,14,13,39,16.10
2017,05,14,13,40,16.10
2017,05,14,13,41,16.10
2017,05,14,13,42,16.10
2017,05,14,13,43,16.10
2017,05,14,13,44,12.90
2017,05,14,13,45,14.50
2017,05,14,13,46,14.50
2017,05,14,13,47,14.50
2017,05,14,13,48,14.50
2017,05,14,13,49,14.50
2017,05,14,13,50,9.60
2017,05,14,13,51,12.90
2017,05,14,13,52,17.70
2017,05,14,13,53,16.10
2017,05,14,13,54,16.10
2017,05,14,13,55,12.90
2017,05,14,13,56,16.10
2017,05,14,13,57,14.50
2017,05,14,13,58,12.90
2017,05,14,13,59,12.90
2017,05,14,14,00,16.10
2017,05,14,14,01,14.50
2017,05,14,14,02,19.30
2017,05,14,14,03,14.50
2017,05,14,14,04,14.50
2017,05,14,14,05,19.30
2017,05,14,14,06,17.70
2017,05,14,14,07,16.10
2017,05,14,14,08,16.10
2017,05,14,14,09,14.50
2017,05,14,14,10,16.10
2017,05,14,14,11,8.10
2017,05,14,14,12,14.50
2017,05,14,14,13,16.10
2017,05,14,14,14,16.10
2017,05,14,14,15,14.50
2017,05,14,14,16,14.50
2017,05,14,14,17,16.10
2017,05,14,14,18,16.10
2017,05,14,14,19,16.10
2017,05,14,14,20,12.90
2017,05,14,14,21,11.30
2017,05,14,14,22,11.30
2017,05,14,14,23,6.40
2017,05,14,14,24,11.30
2017,05,14,14,25,14.50
2017,05,14,14,26,12.90
2017,05,14,14,27,8.10
2017,05,14,14,28,3.20
2017,05,14,14,29,6.40
2017,05,14,14,30,6.40
2017,05,14,14,31,12.90
2017,05,14,14,32,11.30
2017,05,14,14,33,12.90
2017,05,14,14,34,12.90
2017,05,14,14,35,14.50
2017,05,14,14,36,12.90
2017,05,14,14,37,12.90
2017,05,14,14,38,9.60
2017,05,14,14,39,11.30
2017,05,14,14,40,6.40
2017,05,14,14,41,6.40
2017,05,14,14,42,6.40
2017,05,14,14,43,12.90
2017,05,14,14,44,11.30
2017,05,14,14,45,9.60
2017,05,14,14,46,4.80
2017,05,14,14,47,4.80
2017,05,14,14,48,4.80
2017,05,14,14,49,4.80
2017,05,14,14,50,9.60
2017,05,14,14,51,6.40
2017,05,14,14,52,3.20
2017,05,14,14,53,1.60
2017,05,14,14,54,3.20
2017,05,14,14,55,4.80
2017,05,14,14,56,4.80
2017,05,14,14,57,3.20
2017,05,14,14,58,4.80
2017,05,14,14,59,6.40
2017,05,14,15,00,4.80
2017,05,14,15,01,4.80
2017,05,14,15,02,4.80
2017,05,14,15,03,6.40
2017,05,14,15,04,6.40
2017,05,14,15,05,6.40
2017,05,14,15,06,3.20
2017,05,14,15,07,4.80
2017,05,14,15,08,6.40
2017,05,14,15,09,6.40
2017,05,14,15,10,11.30
2017,05,14,15,11,6.40
2017,05,14,15,12,4.80
2017,05,14,15,13,6.40
2017,05,14,15,14,6.40
2017,05,14,15,15,4.80
2017,05,14,15,16,1.60
2017,05,14,15,17,3.20
2017,05,14,15,18,4.80
2017,05,14,15,19,3.20
2017,05,14,15,20,8.10
2017,05,14,15,21,11.30
2017,05,14,15,22,12.90
2017,05,14,15,23,9.60
2017,05,14,15,24,6.40
2017,05,14,15,25,8.10
2017,05,14,15,26,4.80
2017,05,14,15,27,4.80
2017,05,14,15,28,3.20
2017,05,14,15,29,4.80
2017,05,14,15,30,4.80
2017,05,14,15,31,1.60
2017,05,14,15,32,6.40
2017,05,14,15,33,4.80
2017,05,14,15,34,8.10
2017,05,14,15,35,6.40
2017,05,14,15,36,6.40
2017,05,14,15,37,8.10
2017,05,14,15,38,4.80
2017,05,14,15,39,6.40
2017,05,14,15,40,6.40
2017,05,14,15,41,3.20
2017,05,14,15,42,4.80
2017,05,14,15,43,4.80
2017,05,14,15,44,4.80
2017,05,14,15,45,6.40
2017,05,14,15,46,4.80
2017,05,14,15,47,9.60
2017,05,14,15,48,11.30
2017,05,14,15,49,11.30
2017,05,14,15,50,11.30
2017,05,14,15,51,8.10
2017,05,14,15,52,12.90
2017,05,14,15,53,12.90
2017,05,14,15,54,12.90
2017,05,14,15,55,12.90
2017,05,14,15,56,4.80
2017,05,14,15,57,6.40
2017,05,14,15,58,11.30
2017,05,14,15,59,11.30
2017,05,14,16,00,12.90
2017,05,14,16,01,12.90
2017,05,14,16,02,12.90
2017,05,14,16,03,14.50
2017,05,14,16,04,9.60
2017,05,14,16,05,9.60
2017,05,14,16,06,12.90
2017,05,14,16,07,11.30
2017,05,14,16,08,12.90
2017,05,14,16,09,12.90
2017,05,14,16,10,14.50
2017,05,14,16,11,12.90
2017,05,14,16,12,14.50
2017,05,14,16,13,11.30
2017,05,14,16,14,14.50
2017,05,14,16,15,14.50
2017,05,14,16,16,14.50
2017,05,14,16,17,17.70
2017,05,14,16,18,12.90
2017,05,14,16,19,16.10
2017,05,14,16,20,14.50
2017,05,14,16,21,19.30
2017,05,14,16,22,22.50
2017,05,14,16,23,14.50
2017,05,14,16,24,19.30
2017,05,14,16,25,19.30
2017,05,14,16,26,17.70
2017,05,14,16,27,17.70
2017,05,14,16,28,14.50
2017,05,14,16,29,16.10
2017,05,14,16,30,12.90
2017,05,14,16,31,12.90
2017,05,14,16,32,14.50
2017,05,14,16,33,16.10
2017,05,14,16,34,14.50
2017,05,14,16,35,11.30
2017,05,14,16,36,12.90
2017,05,14,16,37,11.30
2017,05,14,16,38,11.30
2017,05,14,16,39,14.50
2017,05,14,16,40,14.50
2017,05,14,16,41,14.50
2017,05,14,16,42,14.50
2017,05,14,16,43,14.50
2017,05,14,16,44,16.10
2017,05,14,16,45,14.50
2017,05,14,16,46,14.50
2017,05,14,16,47,17.70
2017,05,14,16,48,16.10
2017,05,14,16,49,12.90
2017,05,14,16,50,16.10
2017,05,14,16,51,14.50
2017,05,14,16,52,16.10
2017,05,14,16,53,17.70
2017,05,14,16,54,16.10
2017,05,14,16,55,12.90
2017,05,14,16,56,14.50
2017,05,14,16,57,14.50
2017,05,14,16,58,12.90
2017,05,14,16,59,16.10
2017,05,14,17,00,12.90
2017,05,14,17,01,16.10
2017,05,14,17,02,14.50
2017,05,14,17,03,14.50
2017,05,14,17,04,14.50
2017,05,14,17,05,12.90
2017,05,14,17,06,12.90
2017,05,14,17,07,11.30
2017,05,14,17,08,11.30
2017,05,14,17,09,14.50
2017,05,14,17,10,12.90
2017,05,14,17,11,12.90
2017,05,14,17,12,14.50
2017,05,14,17,13,14.50
2017,05,14,17,14,12.90
2017,05,14,17,15,6.40
2017,05,14,17,16,14.50
2017,05,14,17,17,12.90
2017,05,14,17,18,11.30
2017,05,14,17,19,14.50
2017,05,14,17,20,14.50
2017,05,14,17,21,12.90
2017,05,14,17,22,11.30
2017,05,14,17,23,11.30
2017,05,14,17,24,12.90
2017,05,14,17,25,11.30
2017,05,14,17,26,12.90
2017,05,14,17,27,12.90
2017,05,14,17,28,14.50
2017,05,14,17,29,16.10
2017,05,14,17,30,16.10
2017,05,14,17,31,16.10
2017,05,14,17,32,16.10
2017,05,14,17,33,17.70
2017,05,14,17,34,14.50
2017,05,14,17,35,14.50
2017,05,14,17,36,16.10
2017,05,14,17,37,16.10
2017,05,14,17,38,16.10
2017,05,14,17,39,14.50
2017,05,14,17,40,14.50
2017,05,14,17,41,14.50
2017,05,14,17,42,14.50
2017,05,14,17,43,12.90
2017,05,14,17,44,12.90
2017,05,14,17,45,11.30
2017,05,14,17,46,11.30
2017,05,14,17,47,12.90
2017,05,14,17,48,14.50
2017,05,14,17,49,14.50
2017,05,14,17,50,12.90
2017,05,14,17,51,14.50
2017,05,14,17,52,11.30
2017,05,14,17,53,14.50
2017,05,14,17,54,12.90
2017,05,14,17,55,6.40
2017,05,14,17,56,11.30
2017,05,14,17,57,9.60
2017,05,14,17,58,9.60
2017,05,14,17,59,6.40
2017,05,14,18,00,11.30
2017,05,14,18,01,9.60
2017,05,14,18,02,9.60
2017,05,14,18,03,4.80
2017,05,14,18,04,9.60
2017,05,14,18,05,4.80
2017,05,14,18,06,6.40
2017,05,14,18,07,6.40
2017,05,14,18,08,6.40
2017,05,14,18,09,6.40
2017,05,14,18,10,6.40
2017,05,14,18,11,6.40
2017,05,14,18,12,6.40
2017,05,14,18,13,8.10
2017,05,14,18,14,6.40
2017,05,14,18,15,9.60
2017,05,14,18,16,6.40
2017,05,14,18,17,6.40
2017,05,14,18,18,9.60
2017,05,14,18,19,6.40
2017,05,14,18,20,11.30
2017,05,14,18,21,11.30
2017,05,14,18,22,11.30
2017,05,14,18,23,9.60
2017,05,14,18,24,9.60
2017,05,14,18,25,9.60
2017,05,14,18,26,11.30
2017,05,14,18,27,11.30
2017,05,14,18,28,11.30
2017,05,14,18,29,11.30
2017,05,14,18,30,9.60
2017,05,14,18,31,9.60
2017,05,14,18,32,6.40
2017,05,14,18,33,6.40
2017,05,14,18,34,6.40
2017,05,14,18,35,9.60
2017,05,14,18,36,4.80
2017,05,14,18,37,6.40
2017,05,14,18,38,9.60
2017,05,14,18,39,6.40
2017,05,14,18,40,4.80
2017,05,14,18,41,6.40
2017,05,14,18,42,4.80
2017,05,14,18,43,4.80
2017,05,14,18,44,6.40
2017,05,14,18,45,4.80
2017,05,14,18,46,4.80
2017,05,14,18,47,8.10
2017,05,14,18,48,8.10
2017,05,14,18,49,8.10
2017,05,14,18,50,6.40
2017,05,14,18,51,4.80
2017,05,14,18,52,6.40
2017,05,14,18,53,6.40
2017,05,14,18,54,4.80
2017,05,14,18,55,4.80
2017,05,14,18,56,6.40
2017,05,14,18,57,4.80
2017,05,14,18,58,4.80
2017,05,14,18,59,6.40
2017,05,14,19,00,4.80
2017,05,14,19,01,9.60
2017,05,14,19,02,6.40
2017,05,14,19,03,6.40
2017,05,14,19,04,4.80
2017,05,14,19,05,4.80
2017,05,14,19,06,4.80
2017,05,14,19,07,4.80
2017,05,14,19,08,3.20
2017,05,14,19,09,4.80
2017,05,14,19,10,4.80
2017,05,14,19,11,6.40
2017,05,14,19,12,6.40
2017,05,14,19,13,4.80
2017,05,14,19,14,4.80
2017,05,14,19,15,4.80
2017,05,14,19,16,6.40
2017,05,14,19,17,6.40
2017,05,14,19,18,6.40
2017,05,14,19,19,4.80
2017,05,14,19,20,4.80
2017,05,14,19,21,6.40
2017,05,14,19,22,4.80
2017,05,14,19,23,6.40
2017,05,14,19,24,6.40
2017,05,14,19,25,3.20
2017,05,14,19,26,3.20
2017,05,14,19,27,3.20
2017,05,14,19,28,3.20
2017,05,14,19,29,1.60
2017,05,14,19,30,1.60
2017,05,14,19,31,1.60
2017,05,14,19,34,3.20
2017,05,14,19,35,3.20
2017,05,14,19,36,4.80
2017,05,14,19,37,6.40
2017,05,14,19,38,3.20
2017,05,14,19,39,3.20
2017,05,14,19,40,4.80
2017,05,14,19,41,4.80
2017,05,14,19,42,1.60
2017,05,14,19,43,1.60
2017,05,14,20,35,6.40
2017,05,14,20,36,3.20
2017,05,14,20,37,3.20
2017,05,14,20,38,3.20
2017,05,14,20,39,3.20
2017,05,14,20,40,3.20
2017,05,14,20,41,1.60
2017,05,14,20,42,1.60
2017,05,14,20,43,1.60
2017,05,14,20,44,1.60
2017,05,14,20,45,3.20
2017,05,14,20,46,3.20
2017,05,14,20,47,4.80
2017,05,14,20,48,1.60
2017,05,14,20,49,4.80
2017,05,14,20,50,3.20
2017,05,14,20,51,1.60
2017,05,14,20,52,1.60
2017,05,14,20,53,3.20
2017,05,14,20,54,4.80
2017,05,14,20,55,4.80
2017,05,14,20,56,4.80
2017,05,14,20,57,4.80
2017,05,14,20,58,4.80
2017,05,14,20,59,4.80
2017,05,14,21,00,6.40
2017,05,14,21,01,4.80
2017,05,14,21,02,3.20
2017,05,14,21,03,3.20
2017,05,14,21,04,1.60
2017,05,14,21,06,3.20
2017,05,14,21,07,3.20
2017,05,14,21,08,4.80
2017,05,14,21,09,1.60
2017,05,14,21,13,3.20
2017,05,14,21,14,3.20
2017,05,14,21,15,1.60
